QIANFAN-7 (60385 NORAD) Tracking and Keplerian Element Data

This shows tracking and keplerian element data for the satellite.

Feedback or suggestion? Click here.




ElementValue
Catalog60385
NameQIANFAN-7
Epoch Orbit964
Epoch Day286.86383252
Epoch Year2024
RAAN343.4018
Inclination88.9943
Eccentricity0.0014891
Argument of Perigee10.2715
Mean Anonmoly349.878
Mean Motion14.26947192
Decay Rate2.615E-05
L11 60385U 24140G 24286.86383252 .00002615 00000+0 10696-2 0 9999
L22 60385 88.9943 343.4018 0014891 10.2715 349.8780 14.26947192 9640



Live tracking and technical data element details for QIANFAN-7 (NORAD 60385). QIANFAN-7 can be tracked NOW for your location showing map with azimuth and elevation plus other details from your city location.







IsCatalogInMostPopularTable: catalog: 60385, numindb: 6
Update: records affected: 1



GetName: 60385 QIANFAN-7

Hit Count: updated at: Fri, 06 Dec 2024 10:29:04 GMT